Regional Weather Roundup
Issued by NWS

Home | Current Version | Previous Version | Text Only | Print | Product List | Glossary On
Versions: 1 2 3 4 5 6 7 8 9 10 11 12 13 14 15 16 17 18 19 20 21 22 23 24 25 26 27 28
000
ASUS44 KLIX 202106
RWRLA
LOUISIANA WEATHER ROUNDUP
NATIONAL WEATHER SERVICE NEW ORLEANS LA
400 PM CDT FRI APR 20 2018

NOTE: "FAIR" INDICATES FEW OR NO CLOUDS BELOW 12,000 FEET WITH NO
      SIGNIFICANT WEATHER AND/OR OBSTRUCTIONS TO VISIBILITY.
      SKY/WX - SKY CONDITION AND SIGNIFICANT WEATHER.
      TMP - AIR TEMPERATURE.    DP   - DEWPOINT TEMPERATURE.
      RH  - RELATIVE HUMIDITY.  PRES - PRESSURE.
      HX  - HEAT INDEX.         WCI  - WIND CHILL INDEX.

*  THESE STATIONS ARE NOT NWS OR FAA STATIONS AND ARE NOT UNDER
   NWS QUALITY CONTROL.

LAZ040-048-061>063-065-066-069-202200-
SOUTHEAST LOUISIANA

CITY           SKY/WX    TMP DP  RH WIND       PRES   REMARKS
N.O. INTL ARPT PTSUNNY   68  43  40 VRB6      30.20F
N.O. LAKEFRONT FAIR      68  44  42 N5        30.21F
N.O. DOWNTOWN* FAIR      68  40  35 VRB3      30.20F
RESERVE*       FAIR      73  42  31 E6        30.20F
SLIDELL        FAIR      66  45  46 SW6       30.19F
BATON ROUGE    FAIR      68  40  35 VRB3      30.20F
BOOTHVILLE     FAIR      66  52  60 N7        30.22S
BELLE CHASSE   PTSUNNY   66  44  45 E8        30.19F
BOGALUSA*      FAIR      70  41  34 NW3       30.21F
GALLIANO*      FAIR      67  44  43 NE7       30.19F
NEW ROADS*     FAIR      68  42  38 NW5       30.20F
GONZALES*      FAIR      69  43  38 CALM      30.19S
HAMMOND*       FAIR      68  43  40 NE6       30.20F
HOUMA*         MOSUNNY   70  46  43 NE5       30.19F
PORT FOURCHON* CLEAR     66  48  52 NE12      30.20F

$$

LAZ041-044-053-054-202200-
SOUTHWEST LOUISIANA

CITY           SKY/WX    TMP DP  RH WIND       PRES   REMARKS
LAKE CHARLES   FAIR      68  44  42 NE10G18   30.17F
LAFAYETTE      FAIR      68  45  43 NE5       30.18F
PATTERSON      FAIR      68  48  48 NE7       30.19F
SALT POINT       N/A    N/A N/A N/A W3        30.18F
NEW IBERIA     FAIR      70  41  34 MISG      30.19F
CHENAULT AIRPK SUNNY     66  45  45 E7G17     30.18F

$$

LAZ027-028-202200-
CENTRAL LOUISIANA

CITY           SKY/WX    TMP DP  RH WIND       PRES   REMARKS
FORT POLK      PTSUNNY   67  43  42 E8        30.18F
ALEXANDRIA INT FAIR      68  44  42 MISG      30.18F
ALEXANDRIA     FAIR      67  40  37 NE9       30.20F

$$

LAZ001-002-202200-
NORTHWEST LOUISIANA

CITY           SKY/WX    TMP DP  RH WIND       PRES   REMARKS
SHREVEPORT     FAIR      68  43  40 VRB7      30.19F
BARKSDALE AFB  FAIR      67  43  41 SE12      30.19F
DTN SHREVEPORT FAIR      69  43  38 E9G17     30.19F

$$

LAZ014-016-202200-
NORTHEAST LOUISIANA

CITY           SKY/WX    TMP DP  RH WIND       PRES   REMARKS
MONROE         FAIR      68  38  33 N10       30.25F
TALLULAH       FAIR      67  42  40 VRB5      30.24F

$$





USA.gov is the U.S. government's official web portal to all federal, state and local government web resources and services.